EW8528 Weather Reports


time (UTC)temp
F
wind
direction
speed
knots
gust
knots
rain 1hr
in
rain 24hr
in
rain mn
in
humidity
%
barometer
mb
20220811232041 76 353 0.9 2.6 0.00 0.00 0.00 78 1010.4
20220811231654 76 359 0.9 3.5 0.00 0.00 0.00 78 1010.3
20220811231049 77 30 0.9 3.5 0.00 0.00 0.00 77 1010.3
20220811230542 77 342 0.9 3.5 0.00 0.00 0.00 76 1010.3
20220811230110 78 326 0.0 1.7 0.00 0.00 0.00 76 1010.3
20220811225540 78 63 0.0 1.7 0.00 0.00 0.00 76 1010.2
20220811225049 78 65 0.0 1.7 0.00 0.00 0.00 76 1010.3
20220811224605 78 65 0.0 1.7 0.00 0.00 0.00 76 1010.3
20220811224041 78 62 0.0 1.7 0.00 0.00 0.00 75 1010.3
20220811223543 78 0 0.0 1.7 0.00 0.00 0.00 76 1010.2
20220811223059 78 105 0.0 1.7 0.00 0.00 0.00 77 1010.2
20220811222541 78 99 0.9 3.5 0.00 0.00 0.00 76 1010.2
20220811222042 78 71 0.9 4.3 0.00 0.00 0.00 76 1010.2
20220811221546 78 63 0.9 4.3 0.00 0.00 0.00 76 1010.3
20220811221041 78 1 1.7 4.3 0.00 0.00 0.00 75 1010.3
20220811220541 78 39 0.9 3.5 0.00 0.00 0.00 74 1010.3
20220811220049 79 330 0.9 3.5 0.00 0.00 0.00 73 1010.2
20220811215540 79 53 0.9 4.3 0.00 0.00 0.00 72 1010.0
20220811215040 80 81 0.9 4.3 0.00 0.00 0.00 71 1010.2
20220811214558 81 65 0.9 4.3 0.00 0.00 0.00 70 1010.2
20220811214040 81 27 0.9 1.7 0.00 0.00 0.00 69 1010.2
20220811213539 81 35 0.9 1.7 0.00 0.00 0.00 71 1010.2
20220811213054 79 112 0.0 1.7 0.00 0.00 0.00 72 1010.2
20220811212541 80 110 0.9 1.7 0.00 0.00 0.00 71 1010.4
20220811212041 80 89 0.9 3.5 0.00 0.00 0.00 71 1010.2
20220811211552 79 94 0.0 3.5 0.00 0.00 0.00 72 1010.3
20220811211040 79 51 0.9 2.6 0.00 0.00 0.00 73 1010.2
20220811210544 78 338 0.0 1.7 0.00 0.00 0.00 74 1010.2
20220811210107 78 336 0.9 2.6 0.00 0.00 0.00 73 1010.3
20220811205540 78 95 0.9 2.6 0.00 0.00 0.00 73 1010.2
20220811205040 78 133 0.9 2.6 0.00 0.00 0.00 72 1010.4
20220811204550 78 42 0.9 3.5 0.00 0.00 0.00 73 1010.2
20220811204049 78 104 0.0 4.3 0.00 0.00 0.00 73 1010.4
20220811203545 78 0 0.9 4.3 0.00 0.00 0.00 72 1010.3
20220811203059 78 40 0.9 2.6 0.00 0.00 0.00 73 1010.4
20220811202539 78 112 0.9 2.6 0.00 0.00 0.00 73 1010.3
20220811202046 78 55 0.9 2.6 0.00 0.00 0.00 72 1010.3
20220811201553 79 99 0.9 2.6 0.00 0.00 0.00 71 1010.3
20220811201042 79 102 0.0 3.5 0.00 0.00 0.00 71 1010.4
20220811200539 79 46 0.9 3.5 0.00 0.00 0.00 71 1010.3
20220811200050 79 39 0.9 3.5 0.00 0.00 0.00 70 1010.3
20220811195539 79 59 0.0 2.6 0.00 0.00 0.00 70 1010.4
20220811195039 79 141 0.9 3.5 0.00 0.00 0.00 70 1010.4
20220811194604 79 34 0.9 3.5 0.00 0.00 0.00 69 1010.5
20220811194040 80 70 0.9 3.5 0.00 0.00 0.00 68 1010.6
20220811193541 80 118 0.0 3.5 0.00 0.00 0.00 68 1010.5
20220811193050 80 120 0.9 3.5 0.00 0.00 0.00 67 1010.6
20220811192540 80 127 0.9 2.6 0.00 0.00 0.00 69 1010.5
20220811192043 80 342 0.9 3.5 0.00 0.00 0.00 68 1010.6
20220811191556 79 69 0.9 3.5 0.00 0.00 0.00 69 1010.7
20220811191040 80 122 1.7 3.5 0.00 0.00 0.00 68 1010.6
20220811190542 80 93 0.0 2.6 0.00 0.00 0.00 69 1010.7
20220811190100 79 65 0.0 1.7 0.00 0.00 0.00 69 1010.9
20220811185537 79 0 0.0 2.6 0.00 0.00 0.00 68 1010.9
20220811185050 79 310 0.9 4.3 0.00 0.00 0.00 67 1011.0
20220811184633 79 61 0.9 4.3 0.00 0.00 0.00 67 1010.9
20220811184045 79 333 1.7 4.3 0.00 0.00 0.00 67 1010.8
20220811183544 79 1 0.9 5.2 0.00 0.00 0.00 68 1011.0
20220811183103 79 102 1.7 5.2 0.00 0.00 0.00 70 1010.9
20220811182541 78 122 0.9 2.6 0.00 0.00 0.00 71 1010.8
20220811182041 79 117 0.9 2.6 0.00 0.00 0.00 67 1011.0
20220811181600 80 48 0.9 2.6 0.00 0.00 0.00 68 1011.0
20220811181040 80 74 0.9 4.3 0.00 0.00 0.00 68 1011.1
20220811180548 80 108 0.9 4.3 0.00 0.00 0.00 67 1011.1
20220811180049 80 329 1.7 3.5 0.00 0.00 0.00 67 1011.0
20220811175542 80 108 0.0 2.6 0.00 0.00 0.00 64 1011.1
20220811175043 79 52 0.0 3.5 0.00 0.00 0.00 70 1011.3
20220811174614 79 62 1.7 3.5 0.00 0.00 0.00 68 1011.3
20220811174041 79 331 0.9 5.2 0.00 0.00 0.00 66 1011.4
20220811173541 78 0 0.9 5.2 0.00 0.00 0.00 71 1011.6
20220811173139 78 349 1.7 4.3 0.00 0.00 0.00 70 1011.6
20220811172546 78 47 1.7 3.5 0.00 0.00 0.00 72 1011.7
20220811172042 77 80 1.7 3.5 0.00 0.00 0.00 73 1011.9
20220811171557 77 340 0.0 3.5 0.00 0.00 0.00 74 1011.9
20220811171041 77 83 0.9 3.5 0.00 0.00 0.00 76 1012.1
20220811170540 77 86 0.9 2.6 0.00 0.00 0.00 76 1012.2
20220811170047 77 73 0.9 2.6 0.00 0.00 0.00 76 1012.1
20220811165538 76 58 0.9 5.2 0.00 0.00 0.00 76 1012.1
20220811165047 76 348 1.7 5.2 0.00 0.00 0.00 76 1012.2
20220811164600 76 46 0.0 4.3 0.00 0.00 0.00 77 1012.2
20220811164043 76 341 1.7 4.3 0.00 0.00 0.00 77 1012.3
20220811163542 76 333 0.9 4.3 0.00 0.00 0.00 76 1012.2
20220811163112 76 357 0.9 3.5 0.00 0.00 0.00 76 1012.2
20220811162544 76 349 0.9 3.5 0.00 0.00 0.00 75 1012.1
20220811162043 76 0 0.9 1.7 0.00 0.00 0.00 76 1012.0
20220811161553 76 101 0.9 2.6 0.00 0.00 0.00 77 1012.1
20220811161041 76 4 0.0 2.6 0.00 0.00 0.00 77 1012.3
20220811160541 76 349 0.9 2.6 0.00 0.00 0.00 78 1012.3
20220811160059 76 93 0.0 1.7 0.00 0.00 0.00 79 1012.3
20220811155545 75 93 0.0 1.7 0.00 0.00 0.00 79 1012.4
20220811155042 75 102 0.9 1.7 0.00 0.00 0.00 79 1012.2
20220811154628 75 94 0.0 1.7 0.00 0.00 0.00 79 1012.4
20220811154050 75 83 0.0 1.7 0.00 0.00 0.00 80 1012.5
20220811153541 74 0 0.0 0.9 0.00 0.00 0.00 81 1012.4
20220811153058 74 95 0.0 0.9 0.00 0.00 0.00 82 1012.4
20220811152538 74 0 0.0 0.9 0.00 0.00 0.00 81 1012.5
20220811152041 74 75 0.0 0.9 0.00 0.00 0.00 81 1012.6
20220811151601 74 0 0.0 0.9 0.00 0.00 0.00 81 1012.5
20220811151049 74 331 0.0 0.9 0.00 0.00 0.00 81 1012.5
20220811150538 74 331 0.0 2.6 0.00 0.00 0.00 81 1012.4
20220811150110 74 0 0.0 2.6 0.00 0.00 0.00 80 1012.6
20220811145544 74 327 0.9 2.6 0.00 0.00 0.00 79 1012.6
20220811145045 75 62 0.0 1.7 0.00 0.00 0.00 79 1012.4
20220811144555 75 0 0.9 1.7 0.00 0.00 0.00 78 1012.7
20220811144050 75 60 0.9 1.7 0.00 0.00 0.00 76 1012.6
20220811143537 75 0 0.0 1.7 0.00 0.00 0.00 76 1012.7
20220811143050 75 0 0.9 1.7 0.00 0.00 0.00 75 1012.7
20220811142541 75 96 0.0 1.7 0.00 0.00 0.00 75 1012.7
20220811142043 75 74 0.0 1.7 0.00 0.00 0.00 75 1012.7
20220811141556 75 0 0.0 1.7 0.00 0.00 0.00 76 1012.6
20220811141041 75 29 0.0 2.6 0.00 0.00 0.00 75 1012.6
20220811140542 75 0 0.9 2.6 0.00 0.00 0.00 76 1012.7
20220811140113 75 341 0.0 2.6 0.00 0.00 0.00 78 1012.7
20220811135538 74 41 0.9 2.6 0.00 0.00 0.00 77 1012.7
20220811135041 74 116 0.0 2.6 0.00 0.00 0.00 78 1012.7
20220811134613 74 116 0.0 2.6 0.00 0.00 0.00 78 1012.7
20220811134044 74 342 0.9 2.6 0.00 0.00 0.00 78 1012.7
20220811133544 74 338 0.9 2.6 0.00 0.00 0.00 80 1012.7
20220811133057 73 111 0.0 1.7 0.00 0.00 0.00 82 1012.7
20220811132538 73 111 0.0 1.7 0.00 0.00 0.00 82 1012.7
20220811132041 73 111 0.9 1.7 0.00 0.00 0.00 82 1012.7
20220811131608 73 94 0.0 1.7 0.00 0.00 0.00 82 1012.8
20220811131046 73 360 0.9 1.7 0.00 0.00 0.00 82 1012.8
20220811130543 72 0 0.0 1.7 0.00 0.00 0.00 84 1012.8
20220811130141 72 120 0.0 1.7 0.00 0.00 0.00 83 1012.9
20220811125539 71 0 0.0 1.7 0.00 0.00 0.00 84 1012.8
20220811125045 71 130 0.0 1.7 0.00 0.00 0.00 84 1012.9
20220811124612 71 104 0.0 1.7 0.00 0.00 0.00 84 1012.9
20220811124040 71 136 0.0 2.6 0.00 0.00 0.00 85 1013.1
20220811123544 71 0 0.9 2.6 0.00 0.00 0.00 85 1013.0
20220811123055 71 82 0.0 0.9 0.00 0.00 0.00 85 1013.1
20220811122540 71 0 0.0 1.7 0.00 0.00 0.00 86 1013.0
20220811122041 71 75 0.0 1.7 0.00 0.00 0.00 87 1013.0
20220811121601 70 73 0.0 1.7 0.00 0.00 0.00 87 1013.0
20220811121040 70 127 0.0 1.7 0.00 0.00 0.00 87 1012.9
20220811120540 70 120 0.0 2.6 0.00 0.00 0.00 88 1013.0
20220811120055 70 0 0.9 2.6 0.00 0.00 0.00 88 1013.0
20220811115540 70 112 0.9 3.5 0.00 0.00 0.00 88 1012.9
20220811115045 70 126 0.9 3.5 0.00 0.00 0.00 88 1013.1
20220811114553 70 89 1.7 3.5 0.00 0.00 0.00 88 1013.1
20220811114042 70 98 0.9 2.6 0.00 0.00 0.00 88 1013.1
20220811113546 70 197 0.0 1.7 0.00 0.00 0.00 88 1013.1
20220811113056 70 0 0.0 0.9 0.00 0.00 0.00 89 1013.0
20220811112543 70 130 0.0 0.9 0.00 0.00 0.00 89 1013.0
20220811112045 70 0 0.0 2.6 0.00 0.00 0.00 89 1013.1
20220811111558 70 130 0.9 2.6 0.00 0.00 0.00 89 1013.2
20220811111046 70 105 0.0 1.7 0.00 0.00 0.00 89 1013.3
20220811110541 70 94 0.0 0.9 0.00 0.00 0.00 89 1013.3
20220811110103 70 0 0.0 0.9 0.00 0.00 0.00 89 1013.3
20220811105540 69 0 0.0 1.7 0.00 0.00 0.00 89 1013.1
20220811105040 69 94 0.0 1.7 0.00 0.00 0.00 89 1013.1
20220811104604 69 96 0.0 0.9 0.00 0.00 0.00 90 1013.2
20220811104040 69 0 0.0 0.9 0.00 0.00 0.00 90 1013.2
20220811103541 69 0 0.0 0.9 0.00 0.00 0.00 90 1013.1
20220811103053 69 0 0.0 0.9 0.00 0.00 0.00 91 1013.2
20220811102542 69 0 0.0 0.9 0.00 0.00 0.00 91 1013.1
20220811102042 68 77 0.0 0.9 0.00 0.00 0.00 90 1013.2
20220811101553 68 0 0.0 0.0 0.00 0.00 0.00 90 1013.2
20220811101042 68 0 0.0 0.0 0.00 0.00 0.00 90 1013.2
20220811100541 68 0 0.0 0.0 0.00 0.00 0.00 90 1013.1
20220811100102 68 0 0.0 0.0 0.00 0.00 0.00 90 1013.1
20220811095544 68 0 0.0 0.0 0.00 0.00 0.00 90 1013.0
20220811095041 68 0 0.0 0.0 0.00 0.00 0.00 90 1013.1
20220811094554 68 0 0.0 0.0 0.00 0.00 0.00 90 1013.1
20220811094045 68 0 0.0 0.0 0.00 0.00 0.00 89 1013.2
20220811093544 68 0 0.0 0.0 0.00 0.00 0.00 90 1013.0
20220811093050 68 0 0.0 0.0 0.00 0.00 0.00 89 1013.1
20220811092540 68 0 0.0 0.0 0.00 0.00 0.00 89 1013.0
20220811092043 68 0 0.0 0.0 0.00 0.00 0.00 89 1013.0
20220811091558 68 0 0.0 0.0 0.00 0.00 0.00 89 1013.2
20220811091044 68 0 0.0 0.0 0.00 0.00 0.00 89 1013.1
20220811090540 68 0 0.0 0.0 0.00 0.00 0.00 89 1013.3
20220811090050 68 0 0.0 0.0 0.00 0.00 0.00 89 1013.3
20220811085541 68 0 0.0 0.0 0.00 0.00 0.00 89 1013.3
20220811085044 68 0 0.0 0.0 0.00 0.00 0.00 89 1013.4
20220811084555 68 0 0.0 0.0 0.00 0.00 0.00 89 1013.4
20220811084044 68 0 0.0 0.0 0.00 0.00 0.00 89 1013.5
20220811083540 68 0 0.0 0.0 0.00 0.00 0.00 89 1013.5
20220811083056 67 0 0.0 0.0 0.00 0.00 0.00 89 1013.5
20220811082544 67 0 0.0 0.0 0.00 0.00 0.00 89 1013.7
20220811082040 67 0 0.0 0.0 0.00 0.00 0.00 89 1013.8
20220811081614 67 0 0.0 0.0 0.00 0.00 0.00 89 1013.8
20220811081040 67 0 0.0 0.9 0.00 0.00 0.00 89 1013.8
20220811080540 67 0 0.0 0.9 0.00 0.00 0.00 89 1013.8
20220811080051 68 0 0.0 0.9 0.00 0.00 0.00 88 1013.7
20220811075547 68 50 0.0 0.9 0.00 0.00 0.00 88 1013.7
20220811075042 68 0 0.0 0.9 0.00 0.00 0.00 88 1013.8
20220811074605 68 0 0.0 0.9 0.00 0.00 0.00 88 1014.0
20220811074040 68 0 0.0 1.7 0.00 0.00 0.00 88 1014.0
20220811073545 68 0 0.0 1.7 0.00 0.00 0.00 88 1014.1
20220811073101 68 51 0.0 0.9 0.00 0.00 0.00 88 1014.2
20220811072543 68 0 0.0 0.9 0.00 0.00 0.00 88 1014.2
20220811072040 68 51 0.0 0.9 0.00 0.00 0.00 88 1014.3
20220811071556 68 0 0.0 0.0 0.00 0.00 0.00 88 1014.4
20220811071041 68 0 0.0 0.9 0.00 0.00 0.00 88 1014.5
20220811070546 68 0 0.0 0.9 0.00 0.00 0.00 87 1014.6
20220811070104 68 0 0.0 0.9 0.00 0.00 0.00 88 1014.6
20220811065539 68 51 0.0 0.9 0.00 0.00 0.00 88 1014.7
20220811065041 68 51 0.0 0.9 0.00 0.00 0.00 88 1014.8
20220811064546 68 51 0.0 0.9 0.00 0.00 0.00 88 1014.8
20220811064041 68 0 0.0 0.9 0.00 0.00 0.00 88 1014.9
20220811063542 68 51 0.0 0.9 0.00 0.00 0.00 88 1014.8
20220811063058 68 0 0.0 0.9 0.00 0.00 0.00 88 1014.7
20220811062541 68 0 0.0 0.0 0.00 0.00 0.00 88 1014.7
20220811062041 68 0 0.0 0.9 0.00 0.00 0.00 88 1014.9
20220811061550 68 51 0.0 1.7 0.00 0.00 0.00 88 1014.9
20220811061037 68 0 0.9 1.7 0.00 0.00 0.00 88 1014.8
20220811060538 68 0 0.0 1.7 0.00 0.00 0.00 88 1015.0
20220811060100 68 0 0.0 0.9 0.00 0.00 0.00 88 1014.9
20220811055541 68 0 0.0 0.9 0.00 0.00 0.00 88 1014.9
20220811055037 68 51 0.0 0.9 0.00 0.00 0.00 88 1015.0
20220811054555 68 0 0.0 0.9 0.00 0.00 0.00 88 1015.1
20220811054040 68 0 0.0 1.7 0.00 0.00 0.00 88 1015.1
20220811053541 68 50 0.0 1.7 0.00 0.00 0.00 88 1015.2
20220811053048 68 51 0.0 1.7 0.00 0.00 0.00 88 1015.3
20220811052542 68 0 0.0 0.9 0.00 0.00 0.00 88 1015.3
20220811052041 68 50 0.9 1.7 0.00 0.00 0.00 88 1015.4
20220811051554 68 50 0.0 1.7 0.00 0.00 0.00 88 1015.4
20220811051047 68 50 0.0 1.7 0.00 0.00 0.00 88 1015.4
20220811050540 67 50 0.0 1.7 0.00 0.00 0.00 88 1015.4
20220811050059 67 77 0.0 1.7 0.00 0.00 0.00 88 1015.5
20220811045546 67 0 0.0 0.0 0.00 0.00 0.00 88 1015.5
20220811045039 67 0 0.0 0.0 0.00 0.00 0.00 88 1015.5
20220811044558 67 0 0.0 0.0 0.00 0.00 0.00 88 1015.5
20220811044037 67 0 0.0 0.0 0.00 0.00 0.00 88 1015.5
20220811043538 67 0 0.0 0.0 0.00 0.00 0.00 88 1015.4
20220811043104 67 0 0.0 0.0 0.00 0.00 0.00 88 1015.4
20220811042539 67 0 0.0 0.9 0.00 0.00 0.00 88 1015.5
20220811042040 67 0 0.0 0.9 0.00 0.00 0.00 88 1015.6
20220811041553 67 70 0.0 0.9 0.00 0.00 0.00 88 1015.7
20220811041045 67 0 0.0 0.9 0.00 0.00 0.00 88 1015.6
20220811040542 67 38 0.0 1.7 0.00 0.00 0.00 88 1015.7
20220811040116 67 0 0.0 1.7 0.00 0.00 0.00 88 1015.6
20220811035541 67 85 0.0 0.9 0.00 0.00 0.00 88 1015.7
20220811035039 67 86 0.0 0.9 0.00 0.00 0.00 88 1015.8
20220811034046 67 86 0.0 0.9 0.00 0.00 0.00 89 1015.8
20220811033537 67 86 0.0 1.7 0.00 0.00 0.00 89 1015.7
20220811033201 67 87 0.0 1.7 0.00 0.00 0.00 89 1015.8
20220811032956 67 49 0.0 2.6 0.00 0.00 0.00 89 1015.7
20220811032551 67 36 0.9 2.6 0.00 0.00 0.00 88 1015.8
20220811032406 67 70 0.0 1.7 0.00 0.00 0.00 88 1015.8
20220811032250 67 73 0.0 1.7 0.00 0.00 0.00 89 1015.7
20220811032151 67 347 0.0 1.7 0.00 0.00 0.00 89 1015.8
20220811030052 67 0 0.0 1.7 0.00 0.00 0.00 89 1015.8
20220811025538 67 321 0.0 1.7 0.00 0.00 0.00 89 1015.9
20220811025045 67 321 0.9 2.6 0.00 0.00 0.00 89 1015.8
20220811024602 67 35 0.9 2.6 0.00 0.00 0.00 89 1015.9
20220811024039 67 49 0.0 2.6 0.00 0.00 0.00 89 1016.0
20220811023538 66 67 0.9 2.6 0.00 0.00 0.00 89 1016.0
20220811023140 66 82 0.0 3.5 0.00 0.00 0.00 89 1016.1
20220811022540 66 71 0.9 3.5 0.00 0.00 0.00 89 1016.1
20220811022047 66 338 0.9 2.6 0.00 0.00 0.00 89 1016.2
20220811021546 66 10 0.9 2.6 0.00 0.00 0.00 89 1016.3
20220811021039 66 84 0.0 2.6 0.00 0.00 0.00 89 1016.2
20220811020542 66 62 0.0 2.6 0.00 0.00 0.00 89 1016.4
20220811020056 66 68 0.9 2.6 0.00 0.00 0.00 89 1016.3
20220811015537 66 84 0.0 2.6 0.00 0.00 0.00 89 1016.3
20220811015040 66 18 0.0 5.2 0.00 0.00 0.00 88 1016.4
20220811014558 66 41 1.7 5.2 0.00 0.00 0.00 88 1016.3
20220811014040 66 334 0.0 1.7 0.00 0.00 0.00 88 1016.3
20220811013543 66 86 0.0 3.5 0.00 0.00 0.00 88 1016.3
20220811013049 66 0 0.0 3.5 0.00 0.00 0.00 88 1016.2
20220811012540 66 343 1.7 3.5 0.00 0.00 0.00 88 1016.5
20220811012042 66 331 1.7 2.6 0.00 0.00 0.00 88 1016.5
20220811011547 66 75 0.0 1.7 0.00 0.00 0.00 88 1016.5
20220811011041 66 88 0.0 0.9 0.00 0.00 0.00 88 1016.4
20220811010545 66 87 0.0 1.7 0.00 0.00 0.00 88 1016.4
20220811010053 66 87 0.0 1.7 0.00 0.00 0.00 88 1016.3
20220811005544 66 87 0.0 1.7 0.00 0.00 0.00 88 1016.2
20220811005043 66 51 0.0 2.6 0.00 0.00 0.00 88 1016.2
20220811004552 66 70 0.0 2.6 0.00 0.00 0.00 87 1016.1
20220811004039 66 90 0.0 1.7 0.00 0.00 0.00 87 1016.2
20220811003543 66 78 0.9 2.6 0.00 0.00 0.00 87 1016.0
20220811003051 66 356 0.9 3.5 0.00 0.00 0.00 87 1015.9
20220811002537 66 61 0.9 3.5 0.00 0.00 0.00 87 1015.9
20220811002038 66 0 0.0 2.6 0.00 0.00 0.00 87 1015.9
20220811001602 66 75 0.0 2.6 0.00 0.00 0.00 87 1015.8
20220811001037 66 68 0.9 2.6 0.00 0.00 0.00 87 1015.8
20220811000540 66 95 0.0 1.7 0.00 0.00 0.00 86 1015.7
20220811000049 66 0 0.0 1.7 0.00 0.00 0.00 86 1015.8
20220810235547 67 85 0.0 3.5 0.00 0.00 0.00 86 1015.7
20220810235041 67 357 0.0 3.5 0.00 0.00 0.00 86 1015.8
20220810234544 67 0 0.0 3.5 0.00 0.00 0.00 86 1015.8
20220810234038 67 351 0.9 3.5 0.00 0.00 0.00 85 1015.8
20220810233544 67 68 0.0 3.5 0.00 0.00 0.00 85 1015.8
20220810233042 67 0 0.0 2.6 0.00 0.00 0.00 84 1015.7
20220810232545 67 0 0.9 2.6 0.00 0.00 0.00 84 1015.8